Year,Month,Day,Hour,Minute,Value (Times are PST for temperature in C)
2014,08,10,01,55,13.80
2014,08,10,01,56,13.80
2014,08,10,01,57,13.80
2014,08,10,01,58,13.80
2014,08,10,01,59,13.80
2014,08,10,02,00,13.80
2014,08,10,02,01,13.80
2014,08,10,02,02,13.80
2014,08,10,02,03,13.80
2014,08,10,02,04,13.80
2014,08,10,02,05,13.80
2014,08,10,02,06,13.80
2014,08,10,02,07,13.80
2014,08,10,02,08,13.80
2014,08,10,02,09,13.80
2014,08,10,02,10,13.80
2014,08,10,02,11,13.80
2014,08,10,02,12,13.80
2014,08,10,02,13,13.80
2014,08,10,02,14,13.80
2014,08,10,02,15,13.80
2014,08,10,02,16,13.80
2014,08,10,02,17,13.80
2014,08,10,02,18,13.80
2014,08,10,02,19,13.80
2014,08,10,02,20,13.80
2014,08,10,02,21,13.80
2014,08,10,02,22,13.80
2014,08,10,02,23,13.80
2014,08,10,02,24,13.80
2014,08,10,02,25,13.80
2014,08,10,02,26,13.80
2014,08,10,02,27,13.80
2014,08,10,02,28,13.80
2014,08,10,02,29,13.80
2014,08,10,02,30,13.80
2014,08,10,02,31,13.80
2014,08,10,02,32,13.80
2014,08,10,02,33,13.80
2014,08,10,02,34,13.80
2014,08,10,02,35,13.80
2014,08,10,02,36,13.80
2014,08,10,02,37,13.80
2014,08,10,02,38,13.80
2014,08,10,02,39,13.80
2014,08,10,02,40,13.80
2014,08,10,02,41,13.80
2014,08,10,02,42,13.80
2014,08,10,02,43,13.80
2014,08,10,02,44,13.80
2014,08,10,02,45,13.80
2014,08,10,02,46,13.80
2014,08,10,02,47,13.80
2014,08,10,02,48,13.80
2014,08,10,02,49,13.80
2014,08,10,02,50,13.80
2014,08,10,02,51,13.80
2014,08,10,02,52,13.80
2014,08,10,02,53,13.80
2014,08,10,02,54,13.80
2014,08,10,02,55,12.70
2014,08,10,02,56,12.70
2014,08,10,02,57,12.70
2014,08,10,02,58,12.70
2014,08,10,02,59,12.70
2014,08,10,03,00,12.70
2014,08,10,03,01,12.70
2014,08,10,03,02,12.70
2014,08,10,03,03,12.70
2014,08,10,03,04,12.70
2014,08,10,03,05,12.70
2014,08,10,03,06,12.70
2014,08,10,03,07,12.70
2014,08,10,03,08,12.70
2014,08,10,03,09,12.70
2014,08,10,03,10,12.70
2014,08,10,03,11,12.70
2014,08,10,03,12,12.70
2014,08,10,03,13,12.70
2014,08,10,03,14,12.70
2014,08,10,03,15,12.70
2014,08,10,03,16,12.70
2014,08,10,03,17,12.70
2014,08,10,03,18,12.70
2014,08,10,03,19,12.70
2014,08,10,03,20,12.70
2014,08,10,03,21,12.70
2014,08,10,03,22,12.70
2014,08,10,03,23,12.70
2014,08,10,03,24,12.70
2014,08,10,03,25,12.70
2014,08,10,03,26,12.70
2014,08,10,03,27,12.70
2014,08,10,03,28,12.70
2014,08,10,03,29,12.70
2014,08,10,03,30,12.70
2014,08,10,03,31,12.70
2014,08,10,03,32,12.70
2014,08,10,03,33,12.70
2014,08,10,03,34,12.70
2014,08,10,03,35,12.70
2014,08,10,03,36,12.70
2014,08,10,03,37,12.70
2014,08,10,03,38,12.70
2014,08,10,03,39,12.70
2014,08,10,03,40,12.70
2014,08,10,03,41,12.70
2014,08,10,03,42,12.70
2014,08,10,03,43,12.70
2014,08,10,03,44,12.70
2014,08,10,03,45,12.70
2014,08,10,03,46,12.70
2014,08,10,03,47,12.70
2014,08,10,03,48,12.70
2014,08,10,03,49,12.70
2014,08,10,03,50,12.70
2014,08,10,03,51,12.70
2014,08,10,03,52,12.70
2014,08,10,03,53,12.70
2014,08,10,03,54,12.70
2014,08,10,03,55,12.70
2014,08,10,03,56,11.60
2014,08,10,03,57,11.60
2014,08,10,03,58,11.60
2014,08,10,03,59,11.60
2014,08,10,04,00,11.60
2014,08,10,04,01,11.60
2014,08,10,04,02,11.60
2014,08,10,04,03,11.60
2014,08,10,04,04,11.60
2014,08,10,04,05,11.60
2014,08,10,04,06,11.60
2014,08,10,04,07,11.60
2014,08,10,04,08,11.60
2014,08,10,04,09,11.60
2014,08,10,04,10,11.60
2014,08,10,04,11,11.60
2014,08,10,04,12,11.60
2014,08,10,04,13,11.60
2014,08,10,04,14,11.60
2014,08,10,04,15,11.60
2014,08,10,04,16,11.60
2014,08,10,04,17,11.60
2014,08,10,04,18,11.60
2014,08,10,04,19,11.60
2014,08,10,04,20,11.60
2014,08,10,04,21,11.60
2014,08,10,04,22,11.60
2014,08,10,04,23,11.60
2014,08,10,04,24,11.60
2014,08,10,04,25,11.60
2014,08,10,04,26,11.60
2014,08,10,04,27,11.60
2014,08,10,04,28,11.60
2014,08,10,04,29,11.60
2014,08,10,04,30,11.60
2014,08,10,04,31,11.60
2014,08,10,04,32,11.60
2014,08,10,04,33,11.60
2014,08,10,04,34,11.60
2014,08,10,04,35,11.60
2014,08,10,04,36,11.60
2014,08,10,04,37,11.60
2014,08,10,04,38,11.60
2014,08,10,04,39,11.60
2014,08,10,04,40,11.60
2014,08,10,04,41,11.60
2014,08,10,04,42,11.60
2014,08,10,04,43,11.60
2014,08,10,04,44,11.60
2014,08,10,04,45,11.60
2014,08,10,04,46,11.60
2014,08,10,04,47,11.60
2014,08,10,04,48,11.60
2014,08,10,04,49,11.60
2014,08,10,04,50,11.60
2014,08,10,04,51,11.60
2014,08,10,04,52,11.60
2014,08,10,04,53,11.60
2014,08,10,04,54,11.60
2014,08,10,04,55,11.60
2014,08,10,04,56,11.60
2014,08,10,04,57,11.50
2014,08,10,04,58,11.50
2014,08,10,04,59,11.50
2014,08,10,05,00,11.50
2014,08,10,05,01,11.50
2014,08,10,05,02,11.50
2014,08,10,05,03,11.50
2014,08,10,05,04,11.50
2014,08,10,05,05,11.50
2014,08,10,05,06,11.50
2014,08,10,05,07,11.50
2014,08,10,05,08,11.50
2014,08,10,05,09,11.50
2014,08,10,05,10,11.50
2014,08,10,05,11,11.50
2014,08,10,05,12,11.50
2014,08,10,05,13,11.50
2014,08,10,05,14,11.50
2014,08,10,05,15,11.50
2014,08,10,05,16,11.50
2014,08,10,05,17,11.50
2014,08,10,05,18,11.50
2014,08,10,05,19,11.50
2014,08,10,05,20,11.50
2014,08,10,05,21,11.50
2014,08,10,05,22,11.50
2014,08,10,05,23,11.50
2014,08,10,05,24,11.50
2014,08,10,05,25,11.50
2014,08,10,05,26,11.50
2014,08,10,05,27,11.50
2014,08,10,05,28,11.50
2014,08,10,05,29,11.50
2014,08,10,05,30,11.50
2014,08,10,05,31,11.50
2014,08,10,05,32,11.50
2014,08,10,05,33,11.50
2014,08,10,05,34,11.50
2014,08,10,05,35,11.50
2014,08,10,05,36,11.50
2014,08,10,05,37,11.50
2014,08,10,05,38,11.50
2014,08,10,05,39,11.50
2014,08,10,05,40,11.50
2014,08,10,05,41,11.50
2014,08,10,05,42,11.50
2014,08,10,05,43,11.50
2014,08,10,05,44,11.50
2014,08,10,05,45,11.50
2014,08,10,05,46,11.50
2014,08,10,05,47,11.50
2014,08,10,05,48,11.50
2014,08,10,05,49,11.50
2014,08,10,05,50,11.50
2014,08,10,05,51,11.50
2014,08,10,05,52,11.50
2014,08,10,05,53,11.50
2014,08,10,05,54,11.50
2014,08,10,05,55,11.50
2014,08,10,05,56,11.50
2014,08,10,05,57,11.60
2014,08,10,05,58,11.60
2014,08,10,05,59,11.60
2014,08,10,06,00,11.60
2014,08,10,06,01,11.60
2014,08,10,06,02,11.60
2014,08,10,06,03,11.60
2014,08,10,06,04,11.60
2014,08,10,06,05,11.60
2014,08,10,06,06,11.60
2014,08,10,06,07,11.60
2014,08,10,06,08,11.60
2014,08,10,06,09,11.60
2014,08,10,06,10,11.60
2014,08,10,06,11,11.60
2014,08,10,06,12,11.60
2014,08,10,06,13,11.60
2014,08,10,06,14,11.60
2014,08,10,06,15,11.60
2014,08,10,06,16,11.60
2014,08,10,06,17,11.60
2014,08,10,06,18,11.60
2014,08,10,06,19,11.60
2014,08,10,06,20,11.60
2014,08,10,06,21,11.60
2014,08,10,06,22,11.60
2014,08,10,06,23,11.60
2014,08,10,06,24,11.60
2014,08,10,06,25,11.60
2014,08,10,06,26,11.60
2014,08,10,06,27,11.60
2014,08,10,06,28,11.60
2014,08,10,06,29,11.60
2014,08,10,06,30,11.60
2014,08,10,06,31,11.60
2014,08,10,06,32,11.60
2014,08,10,06,33,11.60
2014,08,10,06,34,11.60
2014,08,10,06,35,11.60
2014,08,10,06,36,11.60
2014,08,10,06,37,11.60
2014,08,10,06,38,11.60
2014,08,10,06,39,11.60
2014,08,10,06,40,11.60
2014,08,10,06,41,11.60
2014,08,10,06,42,11.60
2014,08,10,06,43,11.60
2014,08,10,06,44,11.60
2014,08,10,06,45,11.60
2014,08,10,06,46,11.60
2014,08,10,06,47,11.60
2014,08,10,06,48,11.60
2014,08,10,06,49,11.60
2014,08,10,06,50,11.60
2014,08,10,06,51,11.60
2014,08,10,06,52,11.60
2014,08,10,06,53,11.60
2014,08,10,06,54,11.60
2014,08,10,06,55,11.60
2014,08,10,06,56,11.60
2014,08,10,06,57,11.60
2014,08,10,06,58,11.40
2014,08,10,06,59,11.40
2014,08,10,07,00,11.40
2014,08,10,07,01,11.40
2014,08,10,07,02,11.40
2014,08,10,07,03,11.40
2014,08,10,07,04,11.40
2014,08,10,07,05,11.40
2014,08,10,07,06,11.40
2014,08,10,07,07,11.40
2014,08,10,07,08,11.40
2014,08,10,07,09,11.40
2014,08,10,07,10,11.40
2014,08,10,07,11,11.40
2014,08,10,07,12,11.40
2014,08,10,07,13,11.40
2014,08,10,07,14,11.40
2014,08,10,07,15,11.40
2014,08,10,07,16,11.40
2014,08,10,07,17,11.40
2014,08,10,07,18,11.40
2014,08,10,07,19,11.40
2014,08,10,07,20,11.40
2014,08,10,07,21,11.40
2014,08,10,07,22,11.40
2014,08,10,07,23,11.40
2014,08,10,07,24,11.40
2014,08,10,07,25,11.40
2014,08,10,07,26,11.40
2014,08,10,07,27,11.40
2014,08,10,07,28,11.40
2014,08,10,07,29,11.40
2014,08,10,07,30,11.40
2014,08,10,07,31,11.40
2014,08,10,07,32,11.40
2014,08,10,07,33,11.40
2014,08,10,07,34,11.40
2014,08,10,07,35,11.40
2014,08,10,07,36,11.40
2014,08,10,07,37,11.40
2014,08,10,07,38,11.40
2014,08,10,07,39,11.40
2014,08,10,07,40,11.40
2014,08,10,07,41,11.40
2014,08,10,07,42,11.40
2014,08,10,07,43,11.40
2014,08,10,07,44,11.40
2014,08,10,07,45,11.40
2014,08,10,07,46,11.40
2014,08,10,07,47,11.40
2014,08,10,07,48,11.40
2014,08,10,07,49,11.40
2014,08,10,07,50,11.40
2014,08,10,07,51,11.40
2014,08,10,07,52,11.40
2014,08,10,07,53,11.40
2014,08,10,07,54,11.40
2014,08,10,07,55,11.40
2014,08,10,07,56,11.40
2014,08,10,07,57,11.40
2014,08,10,07,58,11.50
2014,08,10,07,59,11.50
2014,08,10,08,00,11.50
2014,08,10,08,01,11.50
2014,08,10,08,02,11.50
2014,08,10,08,03,11.50
2014,08,10,08,04,11.50
2014,08,10,08,05,11.50
2014,08,10,08,06,11.50
2014,08,10,08,07,11.50
2014,08,10,08,08,11.50
2014,08,10,08,09,11.50
2014,08,10,08,10,11.50
2014,08,10,08,11,11.50
2014,08,10,08,12,11.50
2014,08,10,08,13,11.50
2014,08,10,08,14,11.50
2014,08,10,08,15,11.50
2014,08,10,08,16,11.50
2014,08,10,08,17,11.50
2014,08,10,08,18,11.50
2014,08,10,08,19,11.50
2014,08,10,08,20,11.50
2014,08,10,08,21,11.50
2014,08,10,08,22,11.50
2014,08,10,08,23,11.50
2014,08,10,08,24,11.50
2014,08,10,08,25,11.50
2014,08,10,08,26,11.50
2014,08,10,08,27,11.50
2014,08,10,08,28,11.50
2014,08,10,08,29,11.50
2014,08,10,08,30,11.50
2014,08,10,08,31,11.50
2014,08,10,08,32,11.50
2014,08,10,08,33,11.50
2014,08,10,08,34,11.50
2014,08,10,08,35,11.50
2014,08,10,08,36,11.50
2014,08,10,08,37,11.50
2014,08,10,08,38,11.50
2014,08,10,08,39,11.50
2014,08,10,08,40,11.50
2014,08,10,08,41,11.50
2014,08,10,08,42,11.50
2014,08,10,08,43,11.50
2014,08,10,08,44,11.50
2014,08,10,08,45,11.50
2014,08,10,08,46,11.50
2014,08,10,08,47,11.50
2014,08,10,08,48,11.50
2014,08,10,08,49,11.50
2014,08,10,08,50,11.50
2014,08,10,08,51,11.50
2014,08,10,08,52,11.50
2014,08,10,08,53,11.50
2014,08,10,08,54,11.50
2014,08,10,08,55,11.50
2014,08,10,08,56,11.50
2014,08,10,08,57,11.50
2014,08,10,08,58,11.50
2014,08,10,08,59,12.70
2014,08,10,09,00,12.70
2014,08,10,09,01,12.70
2014,08,10,09,02,12.70
2014,08,10,09,03,12.70
2014,08,10,09,04,12.70
2014,08,10,09,05,12.70
2014,08,10,09,06,12.70
2014,08,10,09,07,12.70
2014,08,10,09,08,12.70
2014,08,10,09,09,12.70
2014,08,10,09,10,12.70
2014,08,10,09,11,12.70
2014,08,10,09,12,12.70
2014,08,10,09,13,12.70
2014,08,10,09,14,12.70
2014,08,10,09,15,12.70
2014,08,10,09,16,12.70
2014,08,10,09,17,12.70
2014,08,10,09,18,12.70
2014,08,10,09,19,12.70
2014,08,10,09,20,12.70
2014,08,10,09,21,12.70
2014,08,10,09,22,12.70
2014,08,10,09,23,12.70
2014,08,10,09,24,12.70
2014,08,10,09,25,12.70
2014,08,10,09,26,12.70
2014,08,10,09,27,12.70
2014,08,10,09,28,12.70
2014,08,10,09,29,12.70
2014,08,10,09,30,12.70
2014,08,10,09,31,12.70
2014,08,10,09,32,12.70
2014,08,10,09,33,12.70
2014,08,10,09,34,12.70
2014,08,10,09,35,12.70
2014,08,10,09,36,12.70
2014,08,10,09,37,12.70
2014,08,10,09,38,12.70
2014,08,10,09,39,12.70
2014,08,10,09,40,12.70
2014,08,10,09,41,12.70
2014,08,10,09,42,12.70
2014,08,10,09,43,12.70
2014,08,10,09,44,12.70
2014,08,10,09,45,12.70
2014,08,10,09,46,12.70
2014,08,10,09,47,12.70
2014,08,10,09,48,12.70
2014,08,10,09,49,12.70
2014,08,10,09,50,12.70
2014,08,10,09,51,12.70
2014,08,10,09,52,12.70
2014,08,10,09,53,12.70
2014,08,10,09,54,12.70
2014,08,10,09,55,12.70
2014,08,10,09,56,12.70
2014,08,10,09,57,12.70
2014,08,10,09,58,12.70
2014,08,10,09,59,13.50
2014,08,10,10,00,13.50
2014,08,10,10,01,13.50
2014,08,10,10,02,13.50
2014,08,10,10,03,13.50
2014,08,10,10,04,13.50
2014,08,10,10,05,13.50
2014,08,10,10,06,13.50
2014,08,10,10,07,13.50
2014,08,10,10,08,13.50
2014,08,10,10,09,13.50
2014,08,10,10,10,13.50
2014,08,10,10,11,13.50
2014,08,10,10,12,13.50
2014,08,10,10,13,13.50
2014,08,10,10,14,13.50
2014,08,10,10,15,13.50
2014,08,10,10,16,13.50
2014,08,10,10,17,13.50
2014,08,10,10,18,13.50
2014,08,10,10,19,13.50
2014,08,10,10,20,13.50
2014,08,10,10,21,13.50
2014,08,10,10,22,13.50
2014,08,10,10,23,13.50
2014,08,10,10,24,13.50
2014,08,10,10,25,13.50
2014,08,10,10,26,13.50
2014,08,10,10,27,13.50
2014,08,10,10,28,13.50
2014,08,10,10,29,13.50
2014,08,10,10,30,13.50
2014,08,10,10,31,13.50
2014,08,10,10,32,13.50
2014,08,10,10,33,13.50
2014,08,10,10,34,13.50
2014,08,10,10,35,13.50
2014,08,10,10,36,13.50
2014,08,10,10,37,13.50
2014,08,10,10,38,13.50
2014,08,10,10,39,13.50
2014,08,10,10,40,13.50
2014,08,10,10,41,13.50
2014,08,10,10,42,13.50
2014,08,10,10,43,13.50
2014,08,10,10,44,13.50
2014,08,10,10,45,13.50
2014,08,10,10,46,13.50
2014,08,10,10,47,13.50
2014,08,10,10,48,13.50
2014,08,10,10,49,13.50
2014,08,10,10,50,13.50
2014,08,10,10,51,13.50
2014,08,10,10,52,13.50
2014,08,10,10,53,13.50
2014,08,10,10,54,13.50
2014,08,10,10,55,13.50
2014,08,10,10,56,13.50
2014,08,10,10,57,13.50
2014,08,10,10,58,13.50
2014,08,10,10,59,14.70
2014,08,10,11,00,14.70
2014,08,10,11,01,14.70
2014,08,10,11,02,14.70
2014,08,10,11,03,14.70
2014,08,10,11,04,14.70
2014,08,10,11,05,14.70
2014,08,10,11,06,14.70
2014,08,10,11,07,14.70
2014,08,10,11,08,14.70
2014,08,10,11,09,14.70
2014,08,10,11,10,14.70
2014,08,10,11,11,14.70
2014,08,10,11,12,14.70
2014,08,10,11,13,14.70
2014,08,10,11,14,14.70
2014,08,10,11,15,14.70
2014,08,10,11,16,14.70
2014,08,10,11,17,14.70
2014,08,10,11,18,14.70
2014,08,10,11,19,14.70
2014,08,10,11,20,14.70
2014,08,10,11,21,14.70
2014,08,10,11,22,14.70
2014,08,10,11,23,14.70
2014,08,10,11,24,14.70
2014,08,10,11,25,14.70
2014,08,10,11,26,14.70
2014,08,10,11,27,14.70
2014,08,10,11,28,14.70
2014,08,10,11,29,14.70
2014,08,10,11,30,14.70
2014,08,10,11,31,14.70
2014,08,10,11,32,14.70
2014,08,10,11,33,14.70
2014,08,10,11,34,14.70
2014,08,10,11,35,14.70
2014,08,10,11,36,14.70
2014,08,10,11,37,14.70
2014,08,10,11,38,14.70
2014,08,10,11,39,14.70
2014,08,10,11,40,14.70
2014,08,10,11,41,14.70
2014,08,10,11,42,14.70
2014,08,10,11,43,14.70
2014,08,10,11,44,14.70
2014,08,10,11,45,14.70
2014,08,10,11,46,14.70
2014,08,10,11,47,14.70
2014,08,10,11,48,14.70
2014,08,10,11,49,14.70
2014,08,10,11,50,14.70
2014,08,10,11,51,14.70
2014,08,10,11,52,14.70
2014,08,10,11,53,14.70
2014,08,10,11,54,14.70
2014,08,10,11,55,14.70
2014,08,10,11,56,14.70
2014,08,10,11,57,14.70
2014,08,10,11,58,14.70
2014,08,10,11,59,14.70
2014,08,10,12,00,17.80
2014,08,10,12,01,17.80
2014,08,10,12,02,17.80
2014,08,10,12,03,17.80
2014,08,10,12,04,17.80
2014,08,10,12,05,17.80
2014,08,10,12,06,17.80
2014,08,10,12,07,17.80
2014,08,10,12,08,17.80
2014,08,10,12,09,17.80
2014,08,10,12,10,17.80
2014,08,10,12,11,17.80
2014,08,10,12,12,17.80
2014,08,10,12,13,17.80
2014,08,10,12,14,17.80
2014,08,10,12,15,17.80
2014,08,10,12,16,17.80
2014,08,10,12,17,17.80
2014,08,10,12,18,17.80
2014,08,10,12,19,17.80
2014,08,10,12,20,17.80
2014,08,10,12,21,17.80
2014,08,10,12,22,17.80
2014,08,10,12,23,17.80
2014,08,10,12,24,17.80
2014,08,10,12,25,17.80
2014,08,10,12,26,17.80
2014,08,10,12,27,17.80
2014,08,10,12,28,17.80
2014,08,10,12,29,17.80
2014,08,10,12,30,17.80
2014,08,10,12,31,17.80
2014,08,10,12,32,17.80
2014,08,10,12,33,17.80
2014,08,10,12,34,17.80
2014,08,10,12,35,17.80
2014,08,10,12,36,17.80
2014,08,10,12,37,17.80
2014,08,10,12,38,17.80
2014,08,10,12,39,17.80
2014,08,10,12,40,17.80
2014,08,10,12,41,17.80
2014,08,10,12,42,17.80
2014,08,10,12,43,17.80
2014,08,10,12,44,17.80
2014,08,10,12,45,17.80
2014,08,10,12,46,17.80
2014,08,10,12,47,17.80
2014,08,10,12,48,17.80
2014,08,10,12,49,17.80
2014,08,10,12,50,17.80
2014,08,10,12,51,17.80
2014,08,10,12,52,17.80
2014,08,10,12,53,17.80
2014,08,10,12,54,17.80
2014,08,10,12,55,17.80
2014,08,10,12,56,17.80
2014,08,10,12,57,17.80
2014,08,10,12,58,17.80
2014,08,10,12,59,17.80
2014,08,10,13,01,19.70
2014,08,10,13,02,19.70
2014,08,10,13,03,19.70
2014,08,10,13,04,19.70
2014,08,10,13,05,19.70
2014,08,10,13,06,19.70
2014,08,10,13,07,19.70
2014,08,10,13,08,19.70
2014,08,10,13,09,19.70
2014,08,10,13,10,19.70
2014,08,10,13,11,19.70
2014,08,10,13,12,19.70
2014,08,10,13,13,19.70
2014,08,10,13,14,19.70
2014,08,10,13,15,19.70
2014,08,10,13,16,19.70
2014,08,10,13,17,19.70
2014,08,10,13,18,19.70
2014,08,10,13,19,19.70
2014,08,10,13,20,19.70
2014,08,10,13,21,19.70
2014,08,10,13,22,19.70
2014,08,10,13,23,19.70
2014,08,10,13,24,19.70
2014,08,10,13,25,19.70
2014,08,10,13,26,19.70
2014,08,10,13,27,19.70
2014,08,10,13,28,19.70
2014,08,10,13,29,19.70
2014,08,10,13,30,19.70
2014,08,10,13,31,19.70
2014,08,10,13,32,19.70
2014,08,10,13,33,19.70
2014,08,10,13,34,19.70
2014,08,10,13,35,19.70
2014,08,10,13,36,19.70
2014,08,10,13,37,19.70
2014,08,10,13,38,19.70
2014,08,10,13,39,19.70
2014,08,10,13,40,19.70
2014,08,10,13,41,19.70
2014,08,10,13,42,19.70
2014,08,10,13,43,19.70
2014,08,10,13,44,19.70
2014,08,10,13,45,19.70
2014,08,10,13,46,19.70
2014,08,10,13,47,19.70
2014,08,10,13,48,19.70
2014,08,10,13,49,19.70
2014,08,10,13,50,19.70
2014,08,10,13,51,19.70
2014,08,10,13,52,19.70
2014,08,10,13,53,19.70
2014,08,10,13,54,19.70
2014,08,10,13,55,19.70
2014,08,10,13,56,19.70
2014,08,10,13,57,19.70
2014,08,10,13,58,19.70
2014,08,10,13,59,19.70
2014,08,10,14,00,19.70
2014,08,10,14,01,20.10
2014,08,10,14,02,20.10
2014,08,10,14,03,20.10
2014,08,10,14,04,20.10
2014,08,10,14,05,20.10
2014,08,10,14,06,20.10
2014,08,10,14,07,20.10
2014,08,10,14,08,20.10
2014,08,10,14,09,20.10
2014,08,10,14,10,20.10
2014,08,10,14,11,20.10
2014,08,10,14,12,20.10
2014,08,10,14,13,20.10
2014,08,10,14,14,20.10
2014,08,10,14,15,20.10
2014,08,10,14,16,20.10
2014,08,10,14,17,20.10
2014,08,10,14,18,20.10
2014,08,10,14,19,20.10
2014,08,10,14,20,20.10
2014,08,10,14,21,20.10
2014,08,10,14,22,20.10
2014,08,10,14,23,20.10
2014,08,10,14,24,20.10
2014,08,10,14,25,20.10
2014,08,10,14,26,20.10
2014,08,10,14,27,20.10
2014,08,10,14,28,20.10
2014,08,10,14,29,20.10
2014,08,10,14,30,20.10
2014,08,10,14,31,20.10
2014,08,10,14,32,20.10
2014,08,10,14,33,20.10
2014,08,10,14,34,20.10
2014,08,10,14,35,20.10
2014,08,10,14,36,20.10
2014,08,10,14,37,20.10
2014,08,10,14,38,20.10
2014,08,10,14,39,20.10
2014,08,10,14,40,20.10
2014,08,10,14,41,20.10
2014,08,10,14,42,20.10
2014,08,10,14,43,20.10
2014,08,10,14,44,20.10
2014,08,10,14,45,20.10
2014,08,10,14,46,20.10
2014,08,10,14,47,20.10
2014,08,10,14,48,20.10
2014,08,10,14,49,20.10
2014,08,10,14,50,20.10
2014,08,10,14,51,20.10
2014,08,10,14,52,20.10
2014,08,10,14,53,20.10
2014,08,10,14,54,20.10
2014,08,10,14,55,20.10
2014,08,10,14,56,20.10
2014,08,10,14,57,20.10
2014,08,10,14,58,20.10
2014,08,10,14,59,20.10
2014,08,10,15,00,20.10
2014,08,10,15,01,20.10
2014,08,10,15,02,20.10
2014,08,10,15,03,20.10
2014,08,10,15,04,20.10
2014,08,10,15,05,20.10
2014,08,10,15,06,20.10
2014,08,10,15,07,20.10
2014,08,10,15,08,20.10
2014,08,10,15,09,20.10
2014,08,10,15,10,20.10
2014,08,10,15,11,20.10
2014,08,10,15,12,20.10
2014,08,10,15,13,20.10
2014,08,10,15,14,20.10
2014,08,10,15,15,20.10
2014,08,10,15,16,20.10
2014,08,10,15,17,20.10
2014,08,10,15,18,20.10
2014,08,10,15,19,20.10
2014,08,10,15,20,20.10
2014,08,10,15,21,20.10
2014,08,10,15,22,20.10
2014,08,10,15,23,20.10
2014,08,10,15,24,20.10
2014,08,10,15,25,20.10
2014,08,10,15,26,20.10
2014,08,10,15,27,20.10
2014,08,10,15,28,20.10
2014,08,10,15,29,20.10
2014,08,10,15,30,20.10
2014,08,10,15,31,20.10
2014,08,10,15,32,20.10
2014,08,10,15,33,20.10
2014,08,10,15,34,20.10
2014,08,10,15,35,20.10
2014,08,10,15,36,20.10
2014,08,10,15,37,20.10
2014,08,10,15,38,20.10
2014,08,10,15,39,20.10
2014,08,10,15,40,20.10
2014,08,10,15,41,20.10
2014,08,10,15,42,20.10
2014,08,10,15,43,20.10
2014,08,10,15,44,20.10
2014,08,10,15,45,20.10
2014,08,10,15,46,20.10
2014,08,10,15,47,20.10
2014,08,10,15,48,20.10
2014,08,10,15,49,20.10
2014,08,10,15,50,20.10
2014,08,10,15,51,20.10
2014,08,10,15,52,20.10
2014,08,10,15,53,20.10
2014,08,10,15,54,20.10
2014,08,10,15,55,20.10
2014,08,10,15,56,20.10
2014,08,10,15,57,20.10
2014,08,10,15,58,20.10
2014,08,10,15,59,20.10
2014,08,10,16,00,20.10
2014,08,10,16,01,20.10
2014,08,10,16,02,20.10
2014,08,10,16,03,20.40
2014,08,10,16,04,20.40
2014,08,10,16,05,20.40
2014,08,10,16,06,20.40
2014,08,10,16,07,20.40
2014,08,10,16,08,20.40
2014,08,10,16,09,20.40
2014,08,10,16,10,20.40
2014,08,10,16,11,20.40
2014,08,10,16,12,20.40
2014,08,10,16,13,20.40
2014,08,10,16,14,20.40
2014,08,10,16,15,20.40
2014,08,10,16,16,20.40
2014,08,10,16,17,20.40
2014,08,10,16,18,20.40
2014,08,10,16,19,20.40
2014,08,10,16,20,20.40
2014,08,10,16,21,20.40
2014,08,10,16,22,20.40
2014,08,10,16,23,20.40
2014,08,10,16,24,20.40
2014,08,10,16,25,20.40
2014,08,10,16,26,20.40
2014,08,10,16,27,20.40
2014,08,10,16,28,20.40
2014,08,10,16,29,20.40
2014,08,10,16,30,20.40
2014,08,10,16,31,20.40
2014,08,10,16,32,20.40
2014,08,10,16,33,20.40
2014,08,10,16,34,20.40
2014,08,10,16,35,20.40
2014,08,10,16,36,20.40
2014,08,10,16,37,20.40
2014,08,10,16,38,20.40
2014,08,10,16,39,20.40
2014,08,10,16,40,20.40
2014,08,10,16,41,20.40
2014,08,10,16,42,20.40
2014,08,10,16,43,20.40
2014,08,10,16,44,20.40
2014,08,10,16,45,20.40
2014,08,10,16,46,20.40
2014,08,10,16,47,20.40
2014,08,10,16,48,20.40
2014,08,10,16,49,20.40
2014,08,10,16,50,20.40
2014,08,10,16,51,20.40
2014,08,10,16,52,20.40
2014,08,10,16,53,20.40
2014,08,10,16,54,20.40
2014,08,10,16,55,20.40
2014,08,10,16,56,20.40
2014,08,10,16,57,20.40
2014,08,10,16,58,20.40
2014,08,10,16,59,20.40
2014,08,10,17,04,21.70
2014,08,10,17,05,21.70
2014,08,10,17,06,21.70
2014,08,10,17,07,21.70
2014,08,10,17,08,21.70
2014,08,10,17,09,21.70
2014,08,10,17,10,21.70
2014,08,10,17,11,21.70
2014,08,10,17,12,21.70
2014,08,10,17,13,21.70
2014,08,10,17,14,21.70
2014,08,10,17,15,21.70
2014,08,10,17,16,21.70
2014,08,10,17,17,21.70
2014,08,10,17,18,21.70
2014,08,10,17,19,21.70
2014,08,10,17,20,21.70
2014,08,10,17,21,21.70
2014,08,10,17,22,21.70
2014,08,10,17,23,21.70
2014,08,10,17,24,21.70
2014,08,10,17,25,21.70
2014,08,10,17,26,21.70
2014,08,10,17,27,21.70
2014,08,10,17,28,21.70
2014,08,10,17,29,21.70
2014,08,10,17,30,21.70
2014,08,10,17,31,21.70
2014,08,10,17,32,21.70
2014,08,10,17,33,21.70
2014,08,10,17,34,21.70
2014,08,10,17,35,21.70
2014,08,10,17,36,21.70
2014,08,10,17,37,21.70
2014,08,10,17,38,21.70
2014,08,10,17,39,21.70
2014,08,10,17,40,21.70
2014,08,10,17,41,21.70
2014,08,10,17,42,21.70
2014,08,10,17,43,21.70
2014,08,10,17,44,21.70
2014,08,10,17,45,21.70
2014,08,10,17,46,21.70
2014,08,10,17,47,21.70
2014,08,10,17,48,21.70
2014,08,10,17,49,21.70
2014,08,10,17,50,21.70
2014,08,10,17,51,21.70
2014,08,10,17,52,21.70
2014,08,10,17,53,21.70
2014,08,10,17,54,21.70
2014,08,10,17,55,21.70
2014,08,10,17,56,21.70
2014,08,10,17,57,21.70
2014,08,10,17,58,21.70
2014,08,10,17,59,21.70
2014,08,10,18,04,19.40
2014,08,10,18,05,19.40
2014,08,10,18,06,19.40
2014,08,10,18,07,19.40
2014,08,10,18,08,19.40
2014,08,10,18,09,19.40
2014,08,10,18,10,19.40
2014,08,10,18,11,19.40
2014,08,10,18,12,19.40
2014,08,10,18,13,19.40
2014,08,10,18,14,19.40
2014,08,10,18,15,19.40
2014,08,10,18,16,19.40
2014,08,10,18,17,19.40
2014,08,10,18,18,19.40
2014,08,10,18,19,19.40
2014,08,10,18,20,19.40
2014,08,10,18,21,19.40
2014,08,10,18,22,19.40
2014,08,10,18,23,19.40
2014,08,10,18,24,19.40
2014,08,10,18,25,19.40
2014,08,10,18,26,19.40
2014,08,10,18,27,19.40
2014,08,10,18,28,19.40
2014,08,10,18,29,19.40
2014,08,10,18,30,19.40
2014,08,10,18,31,19.40
2014,08,10,18,32,19.40
2014,08,10,18,33,19.40
2014,08,10,18,34,19.40
2014,08,10,18,35,19.40
2014,08,10,18,36,19.40
2014,08,10,18,37,19.40
2014,08,10,18,38,19.40
2014,08,10,18,39,19.40
2014,08,10,18,40,19.40
2014,08,10,18,41,19.40
2014,08,10,18,42,19.40
2014,08,10,18,43,19.40
2014,08,10,18,44,19.40
2014,08,10,18,45,19.40
2014,08,10,18,46,19.40
2014,08,10,18,47,19.40
2014,08,10,18,48,19.40
2014,08,10,18,49,19.40
2014,08,10,18,50,19.40
2014,08,10,18,51,19.40
2014,08,10,18,52,19.40
2014,08,10,18,53,19.40
2014,08,10,18,54,19.40
2014,08,10,18,55,19.40
2014,08,10,18,56,19.40
2014,08,10,18,57,19.40
2014,08,10,18,58,19.40
2014,08,10,18,59,19.40
2014,08,10,19,05,15.40
2014,08,10,19,06,15.40
2014,08,10,19,07,15.40
2014,08,10,19,08,15.40
2014,08,10,19,09,15.40
2014,08,10,19,10,15.40
2014,08,10,19,11,15.40
2014,08,10,19,12,15.40
2014,08,10,19,13,15.40
2014,08,10,19,14,15.40
2014,08,10,19,15,15.40
2014,08,10,19,16,15.40
2014,08,10,19,17,15.40
2014,08,10,19,18,15.40
2014,08,10,19,19,15.40
2014,08,10,19,20,15.40
2014,08,10,19,21,15.40
2014,08,10,19,22,15.40
2014,08,10,19,23,15.40
2014,08,10,19,24,15.40
2014,08,10,19,25,15.40
2014,08,10,19,26,15.40
2014,08,10,19,27,15.40
2014,08,10,19,28,15.40